Home > Weather > Madrid > Past weeks

Flag for Spain Past Weather in Madrid, Spain — Yesterday and Last 2 Weeks

Now
70 °F

Passing clouds.


Feels Like: 70 °F
Forecast: 62 / 96 °F
Wind: 5 mph from North

Location: Madrid Barajas Airport

Current Time: Aug 27, 2016 at 7:01:25 AM

Latest Report: Aug 27, 2016 at 6:30 AM


Visibility: N/A

Pressure: 30.09 "Hg (27.88 "Hg at 658m altitude)

Humidity: 53%

Dew Point: 52 °F

Location of MadridLocation

Past Weather in Madrid — Graph

°F

Madrid Temperature Yesterday

Maximum temperature yesterday: 93 °F (at 6:00 PM)
Minimum temperature yesterday: 64 °F (at 8:00 AM)
Average temperature yesterday: 81 °F

High & Low Weather Summary for the Past Weeks

 TemperatureHumidityPressure
High99 °F (Aug 23, 7:00 PM)61% (Aug 20, 8:00 AM)30.30 "Hg (Aug 20, 8:00 AM)
Low61 °F (Aug 12, 7:30 AM)10% (Aug 17, 4:00 PM)29.86 "Hg (Aug 18, 5:30 PM)
Average81 °F33%30.08 "Hg
* Reported Aug 12 5:00 AM — Aug 27 5:30 AM, Madrid, Weather by CustomWeather, © 2016

Note: Actual official high and low records may vary slightly from our data, if they occured in-between our weather recording intervals... More about our weather records

Advertising

Madrid Weather History for the Previous 24 Hours

Scroll right to see more
 ConditionsComfort  
Time TempWeatherWind HumidityBarometerVisibility
5:30 AM
Sat, Aug 27
72 °FPassing clouds.5 mph50%30.09 "HgN/A
5:00 AM72 °FPassing clouds.3 mph50%30.07 "HgN/A
4:30 AM73 °FClear.No wind47%30.07 "Hg10 mi
4:00 AM73 °FClear.2 mph44%30.07 "Hg10 mi
3:30 AM75 °FPassing clouds.8 mph44%30.07 "HgN/A
3:00 AM77 °FPassing clouds.5 mph42%30.07 "HgN/A
2:30 AM81 °FClear.2 mph37%30.07 "Hg10 mi
2:00 AM82 °FPassing clouds.8 mph35%30.07 "HgN/A
1:30 AM82 °FPassing clouds.3 mph35%30.07 "HgN/A
1:00 AM81 °FClear.2 mph37%30.07 "Hg10 mi
12:30 AM81 °FPassing clouds.3 mph37%30.07 "HgN/A
12:00 AM81 °FPassing clouds.3 mph34%30.07 "HgN/A
11:30 PM
Fri, Aug 26
82 °FClear.3 mph32%30.04 "Hg10 mi
11:00 PM86 °FPassing clouds.5 mph29%30.04 "HgN/A
10:30 PM88 °FPassing clouds.7 mph25%30.04 "HgN/A
10:00 PM90 °FClear.6 mph22%30.04 "Hg10 mi
9:30 PM90 °FSunny.1 mph22%30.01 "Hg10 mi
9:00 PM91 °FPassing clouds.3 mph21%30.01 "HgN/A
8:30 PM91 °FPassing clouds.5 mph20%30.01 "HgN/A
8:00 PM91 °FSunny.No wind21%30.01 "Hg10 mi
7:30 PM93 °FSunny.1 mph20%30.01 "Hg10 mi
7:00 PM93 °FSunny.3 mph21%30.01 "Hg10 mi
6:30 PM91 °FPassing clouds.6 mph23%30.01 "HgN/A
6:00 PM93 °FPassing clouds.5 mph21%30.01 "HgN/A
5:30 PM90 °FPassing clouds.15 mph24%30.01 "HgN/A
5:00 PM91 °FPassing clouds.2 mph20%30.01 "HgN/A
4:30 PM91 °FPassing clouds.5 mph21%30.04 "HgN/A
4:00 PM91 °FSunny.5 mph21%30.04 "Hg10 mi
3:30 PM91 °FSunny.2 mph21%30.04 "Hg10 mi
3:00 PM90 °FPassing clouds.5 mph22%30.07 "HgN/A
2:30 PM90 °FPassing clouds.8 mph24%30.07 "HgN/A
2:00 PM88 °FPassing clouds.7 mph24%30.07 "HgN/A
1:30 PM88 °FSunny.2 mph25%30.07 "Hg10 mi
1:00 PM86 °FSunny.2 mph27%30.07 "Hg10 mi
12:30 PM86 °FSunny.3 mph27%30.07 "Hg10 mi
12:00 PM82 °FSunny.2 mph30%30.09 "Hg10 mi
11:30 AM81 °FPassing clouds.5 mph32%30.09 "HgN/A
11:00 AM81 °FSunny.3 mph30%30.09 "Hg10 mi
10:30 AM79 °FPassing clouds.3 mph34%30.07 "HgN/A
10:00 AM75 °FSunny.2 mph39%30.07 "Hg10 mi
9:30 AM72 °FSunny.3 mph44%30.07 "Hg10 mi
9:00 AM70 °FPassing clouds.5 mph43%30.07 "HgN/A
8:30 AM66 °FClear.2 mph49%30.07 "Hg10 mi
8:00 AM64 °FClear.2 mph49%30.07 "Hg10 mi
7:30 AM66 °FClear.3 mph46%30.07 "Hg10 mi
7:00 AM66 °FClear.3 mph49%30.04 "Hg10 mi
Weather by CustomWeather, © 2016

See weather overviewHow to use our weather pages